Hourly Data Report for January 03, 2013

BAGOTVILLE A
QUEBEC

48°20'00.000" N
71°00'00.000" W
159.10 m
7060400
71727
YBG

Download Data

Hourly Data (January 2013)
Hourly Data Report for January 3, 2013
TIME
LST
Temp Definition
°C
Dew Point Definition
°C
Rel Hum Definition
%
Precip. Amount Definition
mm

Wind Dir Definition
10's deg

Wind Spd Definition
km/h
Visibility Definition
km
Stn Press Definition
kPa
Hmdx Definition


Wind Chill Definition


Weather Definition


00:00 -21.3 -24.5 75   28 22 24.1 100.07   -33 Mainly Clear
01:00 -21.4 -24.6 75   28 22 24.1 100.08   -33 Mostly Cloudy
02:00 -21.5 -24.7 75   28 22 24.1 100.11   -33 Mostly Cloudy
03:00 -21.8 -25.1 75   28 19 24.1 100.13   -32 Mainly Clear
04:00 -22.0 -25.3 75   28 15 24.1 100.10   -32 Mainly Clear
05:00 -22.4 -25.8 74   28 17 24.1 100.08   -33 Mainly Clear
06:00 -22.5 -25.9 74   28 13 24.1 100.06   -31 Mainly Clear
07:00 -22.0 -25.3 75   28 9 24.1 100.02   -29 Mostly Cloudy
08:00 -22.6 -27.0 67     0 32.2 100.03     Mostly Cloudy
09:00 -22.5 -25.9 74     0 12.9 100.00     Snow Showers
10:00 -20.0 -23.0 77   30 11 19.3 99.99   -28 Snow Showers
11:00 -19.1 -22.7 73   29 7 19.3 99.89   -25 Snow Showers
12:00 -18.6 -21.4 79   31 6 19.3 99.75   -23 Snow Showers
13:00 -17.7 -21.8 70   28 11 32.2 99.68   -25 Mostly Cloudy
14:00 -17.2 -21.1 72   30 6 12.9 99.60   -22 Snow Showers
15:00 -17.0 -20.9 72   31 9 12.9 99.56   -23 Snow Showers
16:00 -17.3 -20.6 75   35 6 12.9 99.49   -22 Snow Showers
17:00 -17.6 -20.9 75   31 4 16.1 99.44   -21 Snow Showers
18:00 -18.5 -21.3 79   27 4 19.3 99.43   -22 Snow Showers
19:00 -19.6 -22.5 78     0 19.3 99.39     Snow Showers
20:00 -22.0 -24.4 81   19 4 16.1 99.29   -26 Snow Showers
21:00 -23.0 -25.5 80   20 6 16.1 99.20   -28 Snow Showers
22:00 -22.9 -25.4 80   21 6 24.1 99.14   -28 Mainly Clear
23:00 -22.9 -25.4 80   22 6 24.1 99.08   -28 Mostly Cloudy

Notes on Data Quality.

Legend

  • E = Estimated
  • M = Missing
  • NA = Not Available*
  • [empty] = Indicates an unobserved value
Date modified: